KC4QLP Weather Reports


time (UTC)temp
C
wind
direction
speed
KPH
gust
KPH
rain 1hr
cm
rain 24hr
cm
rain mn
cm
humidity
%
barometer
mb
20260506190008 10 243 3.2 8.0 0.00 0.43 0.43 87 1003.4
20260506183008 9 211 4.8 11.3 0.00 0.43 0.43 88 1003.0
20260506180008 10 205 0.0 8.0 0.00 0.43 0.43 87 1003.1
20260506173008 10 203 0.0 3.2 0.08 0.43 0.43 85 1003.2
20260506170009 10 203 0.0 11.3 0.18 0.43 0.43 85 1003.2
20260506163010 10 218 1.6 11.3 0.13 0.36 0.36 85 1003.4
20260506160009 11 231 1.6 8.0 0.03 0.25 0.25 84 1003.3
20260506153008 12 204 0.0 0.0 0.05 0.23 0.23 83 1003.2
20260506150008 11 95 0.0 0.0 0.13 0.23 0.23 83 1003.2
20260506143009 11 93 0.0 1.6 0.13 0.18 0.18 83 1003.5
20260506140009 10 138 0.0 1.6 0.08 0.10 0.10 84 1004.1
20260506133009 10 208 0.0 3.2 0.03 0.05 0.05 84 1004.1
20260506130009 10 173 0.0 0.0 0.00 0.03 0.03 84 1003.8
20260506123009 10 204 0.0 0.0 0.03 0.03 0.03 83 1003.8
20260506120009 10 204 0.0 0.0 0.03 0.03 0.03 84 1004.1
20260506113009 10 204 0.0 0.0 0.00 0.00 0.00 84 1004.7
20260506110009 18 198 0.0 0.0 0.00 0.00 0.00 47 1004.6
20260506103009 18 198 0.0 0.0 0.00 0.00 0.00 47 1004.5
20260506100009 18 198 0.0 0.0 0.00 0.00 0.00 47 1004.6
20260506093009 18 198 0.0 0.0 0.00 0.00 0.00 47 1004.5
20260506090009 18 198 0.0 0.0 0.00 0.00 0.00 47 1004.4
20260506083009 18 198 0.0 0.0 0.00 0.00 0.00 47 1004.6
20260506073009 18 198 0.0 0.0 0.00 0.00 0.00 47 1005.3
20260506043009 18 198 0.0 0.0 0.00 0.00 0.00 47 1006.6
20260506040009 18 198 0.0 0.0 0.00 0.00 0.00 47 1006.5
20260506033009 18 198 0.0 0.0 0.00 0.00 0.00 47 1006.5
20260506030009 18 198 0.0 0.0 0.00 0.00 0.00 47 1006.4
20260506023010 18 198 0.0 0.0 0.00 0.00 0.00 47 1006.5
20260506020010 18 198 0.0 0.0 0.00 0.00 0.00 47 1006.3
20260506013010 18 198 0.0 0.0 0.00 0.00 0.00 47 1006.0
20260506010010 18 198 0.0 0.0 0.00 0.00 0.00 47 1005.0
20260506003010 18 198 0.0 0.0 0.00 0.00 0.00 47 1004.1
20260506000011 18 198 0.0 0.0 0.00 0.00 0.00 47 1003.7
20260505233009 18 198 0.0 0.0 0.00 0.00 0.00 47 1002.9
20260505230010 18 198 0.0 0.0 0.00 0.00 0.00 47 1002.8
20260505223010 18 198 0.0 0.0 0.00 0.00 0.00 47 1002.6
20260505220010 18 198 0.0 0.0 0.00 0.00 0.00 47 1002.5
20260505213010 18 198 0.0 0.0 0.00 0.00 0.00 47 1002.8
20260505210010 18 198 0.0 0.0 0.00 0.00 0.00 47 1002.9
20260505203010 18 198 0.0 0.0 0.00 0.00 0.00 47 1002.9
20260505200010 18 198 0.0 0.0 0.00 0.00 0.00 47 1002.8
20260505193010 18 198 0.0 0.0 0.00 0.00 0.00 47 1001.1